Simultaneous Nadir Overpasses (SNOs) Predictions

Prediction of SNOs between METOP-B and TERRA Satellite Orbit:

Table of predicted SNOs for the next 14.0 days since TLE Epoch: 2/20/2021
Index Date (METOP-B) Time (METOP-B) Lat,Lon (METOP-B) SZA (METOP-B ) Date (TERRA) Time (TERRA) Lat,Lon (TERRA) SZA (TERRA ) Distance(km) Time Diff (sec)
1 02/21/2021 10:59:15 81.30, 61.62 93.95 02/21/2021 10:59:23 81.30, 61.78 93.97 2.73 8
2 02/21/2021 11:49:54 -81.31,-130.13 85.96 02/21/2021 11:48:49 -81.32,-130.28 86.01 2.64 65
3 02/24/2021 05:43:02 -81.26, -41.53 87.31 02/24/2021 05:44:16 -81.18, -41.37 87.32 8.58 74
4 02/24/2021 06:33:36 81.30, 128.19 92.95 02/24/2021 06:33:37 81.30, 128.20 92.95 0.42 1
5 02/24/2021 07:24:16 -81.31, -63.93 87.00 02/24/2021 07:23:03 -81.32, -63.84 87.02 1.63 73
6 02/27/2021 01:17:17 -81.30, 26.99 88.11 02/27/2021 01:18:24 -81.29, 26.90 88.09 1.58 67
7 02/27/2021 02:07:56 81.30,-165.25 91.93 02/27/2021 02:07:50 81.30,-165.42 91.91 2.98 6
8 03/01/2021 20:51:39 -81.29, 93.16 89.18 03/01/2021 20:52:38 -81.29, 93.29 89.15 2.09 59
9 03/01/2021 21:42:17 81.31, -98.70 90.90 03/01/2021 21:42:03 81.31, -98.68 90.90 0.73 14
10 03/04/2021 16:25:59 -81.30, 160.10 90.18 03/04/2021 16:26:51 -81.31, 160.02 90.16 1.54 52



Historial Predications of SNOs between METOP-B and TERRA
